OBJECT F, 60750

Orbit data source: Space-Track

You're viewing an Uncataloged Satellite

Recently launched and/or uncataloged satellites may have evolving metadata. Metadata may include but not limited to: Owner, Maufacturer, Bus, Motor, and Mission.

OBJECT F, 60750 is a satellite owned by Xiamen Tianwei (CN) in SSO that was launched on Thu, 29 Aug 2024 UTC via a GUSHENXING 1 launch vehicle from the Yellow Sea Launch Area, China (YSLA). Unknown objects in Earth's orbit typically refer to objects detected orbiting the Earth but have not yet been identified or cataloged. These objects could be anything from previously untracked satellites, spent rocket stages, debris from satellite collisions, or even natural meteoroids temporarily captured by Earth's gravity.

Loading next visibility...
Identifier
60750, 2024-153F
Orbit
SSO
Last TLE update
9 hours ago
Origin
Flag of CNXIAMT (CN / PRC)
Manufacturer
Hangsheng
Mission
Operational Commercial Imaging
Bus & Motor
TFG, Unknown motor
Mass
~50 kg wet, ~50 kg dry
Launch date (UTC)
2024-08-29 (8 months ago)
Launch vehicle
GUSHENXING 1
Launch site
Yellow Sea Launch Area, China (YSLA)
Object type
Unknown
Shape & HBR
Box + 1 Pan, 5 m
Radar Cross Section
5.339 m², Medium (>0.1 m² and < 1m²)

Expand to show TLE details & history

TLE from 9 hours ago
0 OBJECT F
1 60750U 24153F   25129.51951681  .00017735  00000-0  74480-3 0  9997
2 60750  97.6283 254.3239 0016098 138.0154 222.2319 15.23395571 38406
Epoch: 2025-05-09T12:28Z
Definitive object data (Epoch: 2025-05-09T12:28:06.252Z)
Latitude
-0.00007°
Longitude
-160.27663°
Altitude
506.899 km
Speed
7.606 km/s
True Right ascension
16h 57m 17s
True Declination
0° 00' 00"
Sunlit
Object was in full shadow at TLE epoch
Visualization TLE readout
Latitude
30.65338°
Longitude
24.61215°
Altitude
488.751 km
Speed
7.63 km/s
Apparent Right ascension
05h 43m 14s
Apparent Declination
-29° 57' 18"
Sunlit
Object is in daylight
Visualization observer readout
Local Sidereal Time
05:11:21
Azimuth
172.666° S
Elevation
19.738°
Doppler factor
1
Orbital elements
Apogee altitude
503.639 km
Perigee altitude
481.518 km
Semi-major axis
6,870.715 km
Eccentricity
0.0016098
Inclination
97.6283°
RAAN
254.3239°
Arg. of periapsis
138.0154°
True anomaly
222.1081°
Mean anomaly
222.2319°
Eccentric anomaly
222.16998°
Mean motion
3.81101 °/min
BSTAR
0.0007448
Orbital period
94.46 mins
Loading maneuver chart data...
Loading SW <> Apogee altitude chart data...
Loading historical data...
Loading historical data...
Loading historical data...
Loading historical data...
Loading historical data...
Loading historical data...
Loading historical data...

OBJECT F Visibility forecast

Observer location: undefined°, undefined°

Span
Click to sort rows by Start time (UTC) header in descending order
Start Az.
Max El. time (UTC)
Max El. Az.
Max El.
End time (UTC)
End Az.
4 mins2025-05-10 07:33:07.863Z98.34° ESE2025-05-10 07:34:07.863Z76.021° E19.94°2025-05-10 07:37:07.863Z19.409° NNE
4 mins2025-05-10 09:06:07.863Z226.01° WSW2025-05-10 09:08:07.863Z269.721° W20.185°2025-05-10 09:10:07.863Z309.015° NW
4 mins2025-05-10 20:35:07.863Z55.155° ENE2025-05-10 20:37:07.863Z109.491° ESE24.351°2025-05-10 20:39:07.863Z150.572° SSE
|